Location: Unspecified
(0.0000°N, 0.0000°E)
Time: 10:27:26
(UTC+02:00)

Vanguard 1 - Visible Passes

Search period start: 06 May 2015 00:00
Search period end: 16 May 2015 00:00
Orbit: 651 x 3834 km, 34.3° (Epoch: 04 May)

Date Brightness Start Highest point End Pass type
(mag) Time Alt. Az. Time Alt. Az. Time Alt. Az.
06 May 13.3 02:35:52 41° NE 02:35:52 41° NE 02:48:30 10° NE visible
06 May 13.2 04:48:33 37° NW 04:53:42 39° NNW 05:13:43 10° NNE visible
06 May 14.0 07:11:36 10° NW 07:26:01 18° NNW 07:37:12 10° NNE visible
07 May 13.2 02:55:15 47° NNE 02:55:15 47° NNE 03:10:19 10° NE visible
07 May 13.5 05:07:55 26° WNW 05:16:48 32° NNW 05:35:07 10° NNE visible
07 May 14.1 07:37:16 10° NW 07:49:48 17° N 07:59:35 10° NNE visible
08 May 14.0 01:01:55 14° ENE 01:01:55 14° ENE 01:04:01 10° ENE visible
08 May 13.1 03:14:35 49° N 03:14:35 49° N 03:31:57 10° NE visible
08 May 13.7 05:27:14 17° WNW 05:40:12 26° NNW 05:56:41 10° NNE visible
09 May 13.8 01:21:10 21° NE 01:21:10 21° NE 01:26:30 10° NE visible
09 May 13.1 03:33:50 45° NNW 03:33:50 45° NNW 03:53:29 10° NE visible
09 May 13.9 05:47:11 10° WNW 06:03:53 22° NNW 06:18:34 10° NNE visible
10 May 13.6 01:40:22 28° NE 01:40:22 28° NE 01:48:38 10° NE visible
10 May 13.3 03:53:01 37° NNW 03:54:37 37° NNW 04:15:01 10° NE visible
10 May 14.0 06:12:25 10° NW 06:27:47 20° N 06:40:55 10° NNE visible
10 May13.223:46:51ENE23:46:51ENE23:13:03SSWvisible
11 May 13.4 01:59:30 34° NE 01:59:30 34° NE 02:10:29 10° NE visible
11 May 13.5 04:12:08 28° NW 04:17:52 31° NNW 04:36:39 10° NNE visible
11 May 14.1 06:37:27 10° NW 06:51:48 18° N 07:03:55 10° NE visible
11 May 12.4 21:19:28 10° SSE 21:20:37 12° SSE 21:20:37 12° SSE visible
12 May13.400:05:55ENE00:05:55ENE23:33:23SWvisible
12 May 13.3 02:18:33 38° NNE 02:18:33 38° NNE 02:32:12 10° NE visible
12 May 13.7 04:31:12 19° NW 04:41:24 26° NNW 04:58:33 10° NNE visible
12 May 14.2 07:01:44 10° NW 07:15:47 19° N 07:27:30 10° NE visible
12 May 12.2 21:38:38 10° S 21:41:02 17° SSE 21:41:02 17° SSE visible
13 May 13.5 00:24:54 13° NE 00:24:54 13° NE 00:26:17 10° NE visible
13 May 13.3 02:37:32 39° N 02:37:32 39° N 02:53:49 10° NE visible
13 May 13.9 04:50:10 11° NW 05:05:14 22° NNW 05:20:51 10° NNE visible
13 May 14.2 07:25:05 10° NNW 07:39:37 20° N 07:51:24 10° NE visible
13 May 12.1 21:58:43 10° SSW 22:01:34 22° S 22:01:34 22° S visible
14 May 13.7 00:43:49 19° NE 00:43:49 19° NE 00:48:22 10° NE visible
14 May 13.3 02:56:27 34° NNW 02:56:27 34° NNW 03:15:29 10° NE visible
14 May 14.0 05:14:08 10° NW 05:29:17 20° N 05:43:45 10° NE visible
14 May 12.0 22:19:10 10° SSW 22:22:13 26° SSW 22:22:13 26° SSW visible
15 May 13.5 01:02:39 26° NE 01:02:39 26° NE 01:10:14 10° NE visible
15 May 13.5 03:15:16 27° NW 03:19:14 28° NNW 03:37:19 10° NNE visible
15 May 14.1 05:38:33 10° NW 05:53:25 20° N 06:07:21 10° NE visible
15 May 12.0 22:39:56 10° SW 23:08:45 - ENE 22:43:02 30° SSW visible
